Погода в Ялтуровске

Погода в Ялтуровске : погода сейчас, прогноз погоды и архив. Всё, что Вы хотите узнать о погоде в Ялтуровске!

Хотите узнать прогноз погоды в Ялтуровске? Тогда Вам сюда: Погода в Ялтуровске

Поиск расширенной информации на нашем сайте:

Другие новости

Новости СМИ2

Главная страница сайта

Новости сайта

03.07.2017

Напоминаем, что на нашем специализированном сайте Метеоцентр.Азия вы можете получить высокодетализированные автоматические прогнозы погоды по пунктам России, СНГ и мира в авиационном формате (включающие направление и скорость ветра, видимость, явления погоды, количество и форму облачности, нижнюю и верхнюю границу облачности).


Погода в Ялтуровске - сегодня

Время (UTC), дата Ветер
(°,м/с) 
Видим.   Явления Облачность Т
(°С)
Тd
(°С)
f(%) Тe
(°С)
Pmin
(гПа)
dP
(гПа)
Po
(мм)
O2
(г/м3)
Тmin Tmax R s Состояние
почвы
21 21.11.17 170 (Ю) 20000 м    3/0 средняя 
[Ac trans]
-1.8 -7.1 67 -4  1025.5  -0.8  763  310           
00 22.11.17 180 (Ю) 20000 м    3/0 средняя 
[Ac trans]
-2.3 -7.3 69 -5  1024.1  -1.4  762  311           
03 22.11.17 180 (Ю) 20000 м    8/0 верхняя 
[Ci]
-4.3 -7.5 78 -7  1024  -0.2  762  313  -4.5      равномерный
сухой снег
100% 
06 22.11.17 180 (Ю) 20000 м    6/0 средняя, верхняя 
[Ac trans|Ci sp]
-3.5 -7.4 74 -6  1023.9  0.1  762  312  -5.1         
09 22.11.17 180 (Ю) 20000 м    6/0 средняя, верхняя 
[Ac trans|Ci sp]
-1 -6.3 67 -4  1023.4  -0.4  762  309           
12 22.11.17 160 (Ю) 20000 м    6/0 средняя, верхняя 
[Ac trans|Ci sp]
-2.6 -6.6 74 -5  1023.1  -0.3  761  311           
15 22.11.17 160 (Ю) 20000 м    8/0 средняя, верхняя 
[Ac trans|Ci sp]
-3.1 -6.5 77 -4  1022.8  -0.4  761  311    -1       
18 22.11.17 170 (Ю) 20000 м    3/0 верхняя 
[Ci sp]
-4.4 -7.2 81 -7  1022.5  -0.3  761  312           
21 22.11.17 170 (Ю) 20000 м    ясно 
-3.6 -6.7 79 -6  1022.2  -0.2  761  311           
00 23.11.17 180 (Ю) 20000 м    ясно 
-4.9 -7 85 -7  1022.3  761  313           
03 23.11.17 180 (Ю) 20000 м    ясно 
-5.9 -7.4 89 -7  1022.5  0.2  761  314  -6.7      равномерный
сухой снег
100% 
06 23.11.17 170 (Ю) 20000 м    ясно 
-2.8 -6.4 76 -5  1022.7  0.2  761  311           
09 23.11.17 170 (Ю) 20000 м    3/0 верхняя 
[Ci sp]
+0.4 -6.1 62 -1  1022.6  761  307           
12 23.11.17 170 (Ю) 20000 м    8/0 средняя 
[Ac As]
-0.9 -7.2 62 -3  1022.1  -0.5  761  308           
15 23.11.17 160 (Ю) 20000 м    ясно 
-1.8 -7.6 65 -4  1022.3  0.2  761  309    +0.6       
18 23.11.17 170 (Ю) 20000 м    4/0 средняя 
[Ac trans]
-1.1 -6.7 66 -3  1021.9  -0.4  761  308           
21 23.11.17 180 (Ю) 20000 м    ясно 
-1.8 -7.4 66 -4  1021.5  -0.5  760  309           
00 24.11.17 150 (ЮВ) 20000 м    ясно 
-3.9 -8.7 69 -5  1021.1  -0.4  760  312           
03 24.11.17 170 (Ю) 20000 м    ясно 
-3.6 -9.1 66 -7  1019.9  -1.3  759  311  -4      равномерный
сухой снег
100% 
06 24.11.17 200 (Ю) 20000 м    10/0 верхняя 
[Ci]
-1.4 -8.7 58 -2  1019.8  759  308           
09 24.11.17 200 (Ю) 20000 м    10/0 верхняя 
[Ci]
+0.6 -8 52 -1  1019.1  -0.6  759  306           
12 24.11.17 180 (Ю) 20000 м    10/0 верхняя 
[Ci]
-2.7 -7.7 68 -2  1018.7  -0.4  758  309           
15 24.11.17 180 (Ю) 20000 м    ясно 
-7.7 -9.8 85 -9  1018.5  -0.4  758  315    +0.9       
18 24.11.17 тихо ()   20000 м    ясно 
-8.6 -10.3 87 -9  1018.7  0.2  758  316           
21 24.11.17 330 (СЗ) 20000 м    ясно 
-11.6 -12.9 90 -11  1019  0.2  758  320           
Время (UTC), дата Ветер
(°,м/с) 
Видим.   Явления Облачность Т
(°С)
Тd
(°С)
f(%) Тe
(°С)
Pmin
(гПа)
dP
(гПа)
Po
(мм)
O2
(г/м3)
Тmin Tmax R s Состояние
почвы

Для получения пояснительной информации подведите курсор к названию столбца.

ПОГОДА в Ялтуровске - архив

Всё, что Вы хотите узнать о погоде в Ялтуровске - удобно и подробно!

Выберите нужную дату (начиная с 1 января 2015* года) и нажмите кнопку "Найти".
Будут отображены архивные сводки погоды по пункту Ялтуровск, начиная с указанной даты.


Отображать данные в формате CSV (для использования в таблицах Excel)


Внимание! Наш архив погоды предназначен исключительно для личного некоммерческого использования в познавательных целях. Если Вам необходимы официальные справки о состоянии погоды (для производственных, юридических, коммерческих и т.п. целей), обращайтесь в органы Росгидромета.

*Примечание: данная дата относится к архиву по метеостанциям СССР (Россия, СНГ, Балтия).
Архив по метеостанциям Зарубежной Европы и Азии (кроме Китая) хранится 10 дней, по другим регионам земного шара (Китай, Африка, Америка, Австралия, Океания) - 1 день.

Ялтуровск - район местоположения метеостанции


Название, широта, долгота, высота метеостанции:
Ялтуровск 56.7°ш. 66.3°д. 61 м над ур. моря [Российская Федерация]

Дополнительная информация

В oтличие oт бoльшинства пoгoдных сайтoв мы публикуем пoдрoбную метеoинфoрмацию в детальнoм прoфессиoнальнoм фoрмате.

Характеристики температуры и влажнoсти вoздуха измеряются на высoте 2 м в тени вдали oт зданий и деревьев.
Скoрoсть ветра измеряется на высoте 10 м (на урoвне рoста челoвека скoрoсть ветра ниже в 1.5-2 раза). Если метеoстанция нахoдится в гoрoде или в лесу, тo скoрoсть ветра занижена на 2-4 м/с пo сравнению с oткрытым местoм. Скoрoсть ветра над акватoриями крупных рек и oзёр, а также на вершинах хoлмoв на 2-5 м/с выше, чем в oбычных услoвиях.
Атмoсфернoе давление в разных тoчках местнoсти мoжет значительнo oтличаться oт давления на метеoстанции, в зависимoсти oт услoвий рельефа (при пoдъёме на 10 м давление пoнижается примернo на 1 мм рт.ст.).